{"data":{"norad_id":43251,"intl_designator":"2018-030C","name":"IRIDIUM 157","alt_names":[],"object_type":"PAYLOAD","status":"ACTIVE","operator":null,"country":"US","launch_date":"2018-03-30","launch_site_code":"AFWTR","launch_vehicle":null,"mission":null,"orbit_class":"UNKNOWN","rcs_meters":null,"size_class":null,"mass_kg":null,"dimensions":null,"purposes":["comms"],"wikipedia_slug":null,"has_3d_model":false,"image_url":null,"decayed_at":null,"tle_current":{"epoch":"2026-05-24T22:52:43.409280Z","epoch_age_seconds":75294,"freshness":"FRESH","line1":"1 43251U 18030C   26144.95328020  .00000035  00000+0  54360-5 0  9993","line2":"2 43251  86.3939 300.1386 0002166  91.9353 268.2091 14.34217731426802","mean_motion":14.34217731,"eccentricity":0.0002166,"inclination_deg":86.3939,"raan_deg":300.1386,"arg_perigee_deg":91.9353,"mean_anomaly_deg":268.2091,"bstar":5.436e-6,"rev_number":42680,"period_min":100.40316535454,"perigee_km":776.11727035831,"apogee_km":779.21716474535,"semimajor_km":7155.8042175518,"source":"CELESTRAK","updated_at":"2026-05-25T13:38:14.807533Z"}}}